Time,TemperatureF,DewpointF,PressureIn,WindDirection,WindDirectionDegrees,WindSpeedMPH,WindSpeedGustMPH,Humidity,HourlyPrecipIn,Conditions,Clouds,dailyrainin,SoftwareType,DateUTC
2013-04-01 00:10:00,54.2,51.0,29.99,WNW,291,0.0,1.0,89,0.00,,,1.06,weatherlink.com 1.10,2013-04-01 04:10:00,
2013-04-01 00:25:00,54.5,52.0,29.99,East,86,0.0,3.0,90,0.00,,,1.06,weatherlink.com 1.10,2013-04-01 04:25:00,
2013-04-01 00:40:00,53.8,51.0,29.99,East,86,0.0,0.0,90,0.00,,,1.06,weatherlink.com 1.10,2013-04-01 04:40:00,
2013-04-01 00:55:00,53.5,50.0,29.99,East,86,0.0,0.0,89,0.00,,,1.06,weatherlink.com 1.10,2013-04-01 04:55:00,
2013-04-01 01:10:00,53.3,50.0,29.99,East,86,0.0,0.0,88,0.00,,,0.00,weatherlink.com 1.10,2013-04-01 05:10:00,
2013-04-01 01:25:00,53.3,50.0,29.98,East,86,0.0,0.0,88,0.00,,,0.00,weatherlink.com 1.10,2013-04-01 05:25:00,
2013-04-01 01:40:00,53.1,50.0,29.98,East,86,0.0,0.0,88,0.00,,,0.00,weatherlink.com 1.10,2013-04-01 05:40:00,
2013-04-01 01:55:00,53.0,49.0,29.98,North,6,0.0,0.0,87,0.00,,,0.00,weatherlink.com 1.10,2013-04-01 05:55:00,
2013-04-01 02:10:00,53.0,49.0,29.97,East,96,0.0,0.0,87,0.00,,,0.00,weatherlink.com 1.10,2013-04-01 06:10:00,
2013-04-01 02:25:00,53.0,49.0,29.98,ESE,119,0.0,0.0,86,0.00,,,0.00,weatherlink.com 1.10,2013-04-01 06:25:00,
2013-04-01 02:40:00,52.8,49.0,29.97,NNE,31,0.0,1.0,87,0.00,,,0.00,weatherlink.com 1.10,2013-04-01 06:40:00,
2013-04-01 02:55:00,52.6,49.0,29.97,East,89,0.0,5.0,87,0.00,,,0.00,weatherlink.com 1.10,2013-04-01 06:55:00,
2013-04-01 03:10:00,52.3,49.0,29.98,SE,138,0.0,1.0,89,0.00,,,0.00,weatherlink.com 1.10,2013-04-01 07:10:00,
2013-04-01 03:25:00,51.9,49.0,29.98,East,81,0.0,0.0,89,0.00,,,0.00,weatherlink.com 1.10,2013-04-01 07:25:00,
2013-04-01 03:40:00,51.5,49.0,29.98,East,101,0.0,0.0,90,0.00,,,0.00,weatherlink.com 1.10,2013-04-01 07:40:00,
2013-04-01 03:55:00,50.8,48.0,29.98,ESE,118,1.0,1.0,90,0.00,,,0.00,weatherlink.com 1.10,2013-04-01 07:55:00,
2013-04-01 04:10:00,49.7,47.0,29.98,East,90,0.0,0.0,91,0.00,,,0.00,weatherlink.com 1.10,2013-04-01 08:10:00,
2013-04-01 04:25:00,48.8,46.0,29.98,East,91,0.0,0.0,90,0.00,,,0.00,weatherlink.com 1.10,2013-04-01 08:25:00,
2013-04-01 04:40:00,48.2,46.0,29.98,East,91,0.0,0.0,90,0.00,,,0.00,weatherlink.com 1.10,2013-04-01 08:40:00,
2013-04-01 04:55:00,47.5,45.0,29.98,SE,139,0.0,0.0,90,0.00,,,0.00,weatherlink.com 1.10,2013-04-01 08:55:00,
2013-04-01 05:10:00,47.1,44.0,29.98,SE,138,0.0,0.0,90,0.00,,,0.00,weatherlink.com 1.10,2013-04-01 09:10:00,
2013-04-01 05:25:00,47.2,45.0,29.98,SE,138,0.0,0.0,90,0.00,,,0.00,weatherlink.com 1.10,2013-04-01 09:25:00,
2013-04-01 05:40:00,46.1,43.0,29.99,SE,138,0.0,0.0,90,0.00,,,0.00,weatherlink.com 1.10,2013-04-01 09:40:00,
2013-04-01 05:56:00,45.1,42.0,30.00,SE,138,0.0,0.0,90,0.00,,,0.00,weatherlink.com 1.10,2013-04-01 09:56:00,
2013-04-01 06:11:00,44.6,42.0,30.00,SE,138,0.0,0.0,89,0.00,,,0.00,weatherlink.com 1.10,2013-04-01 10:11:00,
2013-04-01 06:26:00,43.5,41.0,30.00,SE,138,0.0,0.0,90,0.00,,,0.00,weatherlink.com 1.10,2013-04-01 10:26:00,
2013-04-01 06:56:00,42.0,39.0,30.02,SE,138,0.0,0.0,89,0.00,,,0.00,weatherlink.com 1.10,2013-04-01 10:56:00,
2013-04-01 07:11:00,41.9,38.0,30.02,SE,138,0.0,0.0,87,0.00,,,0.00,weatherlink.com 1.10,2013-04-01 11:11:00,
2013-04-01 07:26:00,41.2,38.0,30.03,SE,138,0.0,0.0,87,0.00,,,0.00,weatherlink.com 1.10,2013-04-01 11:26:00,
2013-04-01 08:11:00,40.5,37.0,30.06,SE,138,0.0,0.0,86,0.00,,,0.00,weatherlink.com 1.10,2013-04-01 12:11:00,
2013-04-01 08:41:00,40.9,37.0,30.07,SE,138,0.0,0.0,86,0.00,,,0.00,weatherlink.com 1.10,2013-04-01 12:41:00,
2013-04-01 08:56:00,42.2,38.0,30.08,SE,138,0.0,0.0,86,0.00,,,0.00,weatherlink.com 1.10,2013-04-01 12:56:00,
2013-04-01 09:11:00,42.9,39.0,30.08,SE,138,0.0,0.0,86,0.00,,,0.00,weatherlink.com 1.10,2013-04-01 13:11:00,
2013-04-01 09:26:00,43.4,40.0,30.09,SE,138,0.0,0.0,86,0.00,,,0.00,weatherlink.com 1.10,2013-04-01 13:26:00,
2013-04-01 09:41:00,45.5,42.0,30.09,East,97,0.0,0.0,86,0.00,,,0.00,weatherlink.com 1.10,2013-04-01 13:41:00,
2013-04-01 09:56:00,46.9,43.0,30.09,East,82,0.0,0.0,86,0.00,,,0.00,weatherlink.com 1.10,2013-04-01 13:56:00,
2013-04-01 10:11:00,48.6,45.0,30.09,East,84,0.0,0.0,86,0.01,,,0.01,weatherlink.com 1.10,2013-04-01 14:11:00,
2013-04-01 10:26:00,50.4,46.0,30.09,ENE,77,0.0,0.0,85,0.01,,,0.01,weatherlink.com 1.10,2013-04-01 14:26:00,
2013-04-01 10:41:00,51.7,45.0,30.10,ENE,68,0.0,1.0,79,0.01,,,0.01,weatherlink.com 1.10,2013-04-01 14:41:00,
2013-04-01 10:56:00,53.2,42.0,30.11,WNW,302,0.0,2.0,67,0.01,,,0.01,weatherlink.com 1.10,2013-04-01 14:56:00,
2013-04-01 11:11:00,54.5,42.0,30.11,NNW,342,0.0,5.0,64,0.00,,,0.01,weatherlink.com 1.10,2013-04-01 15:11:00,
2013-04-01 11:26:00,55.8,43.0,30.11,NW,314,0.0,4.0,63,0.00,,,0.01,weatherlink.com 1.10,2013-04-01 15:26:00,
2013-04-01 11:42:00,57.2,39.0,30.11,East,79,0.0,3.0,51,0.00,,,0.01,weatherlink.com 1.10,2013-04-01 15:42:00,
2013-04-01 11:57:00,58.2,43.0,30.11,West,281,0.0,6.0,58,0.00,,,0.01,weatherlink.com 1.10,2013-04-01 15:57:00,
2013-04-01 12:12:00,60.0,43.0,30.11,NNW,333,0.0,0.0,53,0.00,,,0.01,weatherlink.com 1.10,2013-04-01 16:12:00,
2013-04-01 12:27:00,60.3,42.0,30.11,NW,309,0.0,4.0,52,0.00,,,0.01,weatherlink.com 1.10,2013-04-01 16:27:00,
2013-04-01 12:42:00,61.2,43.0,30.11,NW,310,0.0,1.0,51,0.00,,,0.01,weatherlink.com 1.10,2013-04-01 16:42:00,
2013-04-01 13:12:00,62.1,43.0,30.11,West,262,0.0,6.0,50,0.00,,,0.01,weatherlink.com 1.10,2013-04-01 17:12:00,
2013-04-01 13:27:00,63.7,45.0,30.11,SSW,208,0.0,2.0,50,0.00,,,0.01,weatherlink.com 1.10,2013-04-01 17:27:00,
2013-04-01 13:42:00,64.5,44.0,30.11,NE,46,0.0,6.0,47,0.00,,,0.01,weatherlink.com 1.10,2013-04-01 17:42:00,
2013-04-01 13:57:00,64.0,39.0,30.11,NE,49,0.0,9.0,40,0.00,,,0.01,weatherlink.com 1.10,2013-04-01 17:57:00,
2013-04-01 14:12:00,63.8,41.0,30.11,SSW,210,0.0,9.0,43,0.00,,,0.01,weatherlink.com 1.10,2013-04-01 18:12:00,
2013-04-01 14:27:00,64.9,40.0,30.10,NW,319,4.0,9.0,41,0.00,,,0.01,weatherlink.com 1.10,2013-04-01 18:27:00,
2013-04-01 14:42:00,64.3,42.0,30.11,NW,324,0.0,7.0,45,0.00,,,0.01,weatherlink.com 1.10,2013-04-01 18:42:00,
2013-04-01 14:57:00,63.2,41.0,30.10,West,277,0.0,6.0,45,0.00,,,0.01,weatherlink.com 1.10,2013-04-01 18:57:00,
2013-04-01 15:12:00,63.0,43.0,30.09,SW,224,0.0,10.0,49,0.00,,,0.01,weatherlink.com 1.10,2013-04-01 19:12:00,
2013-04-01 15:27:00,64.1,44.0,30.09,NE,46,0.0,5.0,49,0.00,,,0.01,weatherlink.com 1.10,2013-04-01 19:27:00,
2013-04-01 15:42:00,62.8,43.0,30.09,WNW,291,0.0,9.0,48,0.00,,,0.01,weatherlink.com 1.10,2013-04-01 19:42:00,
2013-04-01 15:57:00,62.5,45.0,30.09,WSW,249,0.0,10.0,53,0.00,,,0.01,weatherlink.com 1.10,2013-04-01 19:57:00,
2013-04-01 16:12:00,62.7,46.0,30.09,NW,307,0.0,3.0,55,0.00,,,0.01,weatherlink.com 1.10,2013-04-01 20:12:00,
2013-04-01 16:27:00,61.4,43.0,30.09,SSE,164,1.0,5.0,52,0.00,,,0.01,weatherlink.com 1.10,2013-04-01 20:27:00,
2013-04-01 16:42:00,62.2,44.0,30.09,SW,222,0.0,4.0,52,0.00,,,0.01,weatherlink.com 1.10,2013-04-01 20:42:00,
2013-04-01 16:57:00,61.1,45.0,30.09,WSW,246,0.0,3.0,55,0.00,,,0.01,weatherlink.com 1.10,2013-04-01 20:57:00,
2013-04-01 17:12:00,62.5,44.0,30.08,WSW,238,0.0,4.0,52,0.00,,,0.01,weatherlink.com 1.10,2013-04-01 21:12:00,
2013-04-01 17:27:00,61.2,44.0,30.08,SW,224,0.0,3.0,53,0.00,,,0.01,weatherlink.com 1.10,2013-04-01 21:27:00,
2013-04-01 17:42:00,62.3,44.0,30.08,WSW,252,0.0,3.0,52,0.00,,,0.01,weatherlink.com 1.10,2013-04-01 21:42:00,
2013-04-01 17:57:00,63.7,43.0,30.08,NE,46,0.0,2.0,47,0.00,,,0.01,weatherlink.com 1.10,2013-04-01 21:57:00,
2013-04-01 18:12:00,64.3,46.0,30.08,North,8,0.0,4.0,51,0.00,,,0.01,weatherlink.com 1.10,2013-04-01 22:12:00,
2013-04-01 18:27:00,64.2,44.0,30.08,SSE,149,0.0,4.0,49,0.00,,,0.01,weatherlink.com 1.10,2013-04-01 22:27:00,
2013-04-01 18:42:00,63.0,44.0,30.08,West,272,0.0,3.0,50,0.00,,,0.01,weatherlink.com 1.10,2013-04-01 22:42:00,
2013-04-01 18:57:00,61.1,44.0,30.09,NNW,336,0.0,3.0,53,0.00,,,0.01,weatherlink.com 1.10,2013-04-01 22:57:00,
2013-04-01 19:12:00,59.1,43.0,30.09,WNW,285,0.0,2.0,56,0.00,,,0.01,weatherlink.com 1.10,2013-04-01 23:12:00,
2013-04-01 19:42:00,57.4,43.0,30.10,SE,142,0.0,1.0,59,0.00,,,0.01,weatherlink.com 1.10,2013-04-01 23:42:00,
2013-04-01 19:57:00,56.0,42.0,30.10,East,91,0.0,2.0,60,0.00,,,0.01,weatherlink.com 1.10,2013-04-01 23:57:00,
2013-04-01 20:12:00,55.4,42.0,30.10,WSW,243,0.0,1.0,61,0.00,,,0.01,weatherlink.com 1.10,2013-04-02 00:12:00,
2013-04-01 20:27:00,54.4,42.0,30.11,SW,218,0.0,2.0,63,0.00,,,0.01,weatherlink.com 1.10,2013-04-02 00:27:00,
2013-04-01 20:42:00,53.9,42.0,30.11,SSE,166,0.0,2.0,64,0.00,,,0.01,weatherlink.com 1.10,2013-04-02 00:42:00,
2013-04-01 20:57:00,53.4,42.0,30.11,NNW,330,0.0,1.0,65,0.00,,,0.01,weatherlink.com 1.10,2013-04-02 00:57:00,
2013-04-01 21:12:00,53.3,42.0,30.12,NW,317,1.0,1.0,65,0.00,,,0.01,weatherlink.com 1.10,2013-04-02 01:12:00,
2013-04-01 21:27:00,52.6,41.0,30.12,ESE,120,0.0,1.0,66,0.00,,,0.01,weatherlink.com 1.10,2013-04-02 01:27:00,
2013-04-01 21:42:00,52.6,41.0,30.13,NNW,342,0.0,5.0,65,0.00,,,0.01,weatherlink.com 1.10,2013-04-02 01:42:00,
2013-04-01 21:57:00,52.4,40.0,30.13,ENE,77,0.0,1.0,63,0.00,,,0.01,weatherlink.com 1.10,2013-04-02 01:57:00,
2013-04-01 22:12:00,52.1,38.0,30.14,NW,324,0.0,4.0,60,0.00,,,0.01,weatherlink.com 1.10,2013-04-02 02:12:00,
2013-04-01 22:27:00,51.9,38.0,30.14,SW,214,0.0,2.0,59,0.00,,,0.01,weatherlink.com 1.10,2013-04-02 02:27:00,
2013-04-01 22:42:00,51.1,37.0,30.14,NNW,330,0.0,6.0,58,0.00,,,0.01,weatherlink.com 1.10,2013-04-02 02:42:00,
2013-04-01 22:57:00,51.1,36.0,30.14,NW,304,0.0,7.0,57,0.00,,,0.01,weatherlink.com 1.10,2013-04-02 02:57:00,
2013-04-01 23:12:00,50.3,35.0,30.15,WSW,255,0.0,2.0,57,0.00,,,0.01,weatherlink.com 1.10,2013-04-02 03:12:00,
2013-04-01 23:27:00,50.1,36.0,30.15,South,183,0.0,1.0,58,0.00,,,0.01,weatherlink.com 1.10,2013-04-02 03:27:00,
2013-04-01 23:42:00,49.5,35.0,30.14,West,267,0.0,3.0,58,0.00,,,0.01,weatherlink.com 1.10,2013-04-02 03:42:00,
2013-04-01 23:57:00,49.1,36.0,30.15,WSW,246,0.0,3.0,60,0.00,,,0.01,weatherlink.com 1.10,2013-04-02 03:57:00,